Theta_e
326 325 325 324 324 323 322 323 324 324 323 323 323 326 326 325 324 323 322 323 325 328 324 323 323 320 321 322 322 324 320 319
325 325 324 323 323 323 323 320 322 322 322 320 319 319 321 321 321 322 321 321 322 325 323 321 321 321 320 321 322 321 320 319
322 324 323 321 321 321 322 323 322 323 323 323 320 319 320 320 321 321 321 321 322 322 321 321 322 322 321 322 322 319 319 318
321 322 322 320 320 321 322 322 323 323 322 323 323 321 320 318 319 319 320 322 322 323 323 323 323 322 323 325 324 322 318 318
322 322 322 321 322 323 322 322 321 323 326 323 319 318 316 319 319 320 321 323 322 322 324 324 324 326 326 322 324 323 325 320
321 322 322 323 322 323 324 321 320 323 323 323 321 319 317 319 319 319 321 318 320 320 324 327 325 326 327 326 326 327 326 324
322 323 322 323 323 322 324 321 320 321 323 323 322 318 317 317 317 316 318 319 317 320 325 326 328 327 326 328 328 328 326 326
321 321 320 321 322 320 321 321 319 320 322 322 322 321 321 318 317 316 316 317 318 320 322 324 326 328 327 328 328 328 328 327
322 322 322 321 322 322 322 320 319 321 320 321 322 321 318 318 321 320 317 317 317 319 320 320 326 328 328 329 329 330 330 328
321 323 324 322 322 322 323 322 322 321 322 322 321 321 320 319 322 325 323 321 320 321 322 324 325 328 328 329 329 328 328 328
321 323 324 324 323 323 324 323 322 322 323 324 323 322 324 324 323 323 325 324 325 325 326 327 328 328 328 329 327 328 327 327
321 323 325 326 325 323 323 323 322 323 323 324 324 323 324 324 324 326 325 326 325 324 326 326 326 326 328 327 327 327 326 326
321 322 324 325 325 323 322 323 322 323 324 324 324 325 326 325 326 325 328 327 328 327 326 325 325 326 327 326 325 325 325 324
321 322 322 324 325 325 323 323 322 323 323 324 326 327 326 326 326 327 327 325 324 325 325 325 325 326 325 326 326 326 325 324
318 320 322 323 324 325 324 324 323 323 322 323 324 325 325 326 327 328 328 328 326 325 327 326 326 325 325 325 324 325 324 322
314 318 321 323 324 325 326 326 325 324 322 322 324 325 326 325 326 327 326 326 325 325 325 325 324 324 322 324 324 321 322 319
314 315 319 321 323 325 325 326 327 327 324 323 323 324 323 324 325 325 325 324 323 323 322 322 321 307 294 296 303 309 301 297
313 314 316 318 322 324 325 326 327 326 325 324 323 323 322 324 322 322 322 322 321 311 305 301 296 295 292 292 292 293 290 289
314 315 316 317 319 324 326 326 326 325 324 324 323 323 322 322 322 321 313 309 303 297 294 292 290 289 289 289 288 287 286 285
Wind_Speed
11 7 6 5 7 7 7 5 5 5 3 6 5 9 7 13 12 11 11 9 10 8 8 10 11 9 7 5 6 3 7 6
11 9 9 8 8 9 9 8 5 4 5 6 6 7 11 11 10 13 11 8 10 8 9 11 8 8 6 6 4 5 4 5
12 12 10 10 10 9 9 10 10 6 5 7 5 8 9 9 9 9 8 9 11 11 10 8 7 6 8 7 7 6 5 6
15 14 14 11 12 13 9 10 10 9 8 9 10 9 8 9 9 8 9 10 12 11 9 7 7 8 8 10 9 8 6 7
15 15 15 14 13 13 12 9 10 10 13 12 14 13 13 10 10 11 10 14 11 10 11 9 10 8 9 7 5 7 9 8
16 16 16 16 13 13 15 13 10 9 12 12 11 13 8 7 8 10 8 8 11 14 12 12 10 6 7 9 10 10 6 6
15 15 15 15 15 12 14 15 14 11 13 12 15 14 12 11 10 8 6 7 10 12 15 12 8 9 9 9 9 9 8 8
16 17 16 17 18 16 14 15 15 15 11 12 16 14 13 16 14 11 11 7 8 12 13 10 9 9 9 8 9 9 9 10
17 18 17 18 20 20 19 17 17 18 16 14 15 14 7 9 14 13 12 11 10 11 12 10 13 11 11 11 9 7 10 10
19 19 18 17 18 20 20 20 18 17 19 16 14 13 14 12 14 15 14 15 13 15 14 14 14 13 13 11 8 10 11 11
18 18 18 16 17 17 17 18 19 19 19 16 15 14 15 15 13 17 16 15 16 14 16 14 12 12 13 12 11 12 12 11
18 17 18 17 17 17 17 17 18 18 19 18 17 15 15 13 12 14 15 14 16 16 15 16 15 15 14 15 14 14 15 14
15 17 18 17 18 18 18 17 17 17 18 19 19 19 17 17 16 14 13 13 13 14 15 15 16 16 16 17 17 15 16 17
13 14 17 18 18 18 18 18 18 17 17 18 17 17 18 18 17 16 15 14 14 15 16 16 16 15 16 16 16 16 16 14
10 13 15 17 18 18 18 19 18 18 18 18 17 18 17 17 16 16 16 15 16 16 16 15 15 16 16 16 16 15 14 13
9 13 13 16 18 18 18 18 19 18 18 18 17 16 16 16 15 15 15 15 15 16 15 14 14 13 10 13 12 11 11 9
9 10 12 15 16 17 17 17 17 17 17 17 16 16 16 15 14 14 13 14 13 13 13 13 9 6 8 9 4 4 7 7
14 11 10 12 14 15 16 16 16 18 18 18 17 17 16 15 15 14 13 13 7 8 10 10 10 9 14 16 14 9 10 10
9 10 10 12 11 14 14 15 16 16 16 16 16 15 15 14 14 9 11 10 12 10 11 12 12 10 15 18 19 13 13 13
Wind_Direction
158 176 155 142 148 156 151 162 145 95 42 71 74 155 156 132 132 133 119 135 157 162 142 146 151 144 134 164 159 159 167 178
144 161 157 159 153 157 159 144 128 118 106 93 86 86 120 120 130 118 126 146 154 145 152 161 149 141 142 116 126 157 173 148
161 158 166 170 160 160 172 161 158 142 126 109 85 96 89 105 116 128 135 153 161 146 148 143 158 122 135 157 171 151 179 182
170 175 167 177 174 163 177 161 164 150 126 113 114 99 101 120 135 151 176 174 177 146 144 164 161 166 177 176 188 166 192 192
172 179 168 176 182 163 162 163 177 154 165 151 148 148 155 158 162 161 173 181 164 151 181 183 186 194 179 169 177 202 229 202
176 179 170 173 176 176 161 167 173 169 169 175 164 158 156 146 152 164 182 168 159 184 220 196 190 190 197 162 204 208 221 243
177 173 166 170 159 181 169 167 175 180 186 180 171 168 174 165 167 165 170 176 186 200 218 201 199 203 201 206 211 206 218 236
182 174 175 171 168 178 181 175 173 182 188 181 183 177 176 176 174 178 173 179 183 201 214 194 200 205 208 213 210 217 217 235
190 180 179 177 172 177 181 185 177 176 186 187 183 191 178 174 188 189 192 192 197 195 203 228 210 206 213 222 219 219 231 236
192 185 185 182 180 181 182 180 182 182 179 186 195 190 195 204 191 191 198 206 211 200 210 202 225 219 223 226 226 230 230 233
191 191 185 184 182 182 184 187 184 182 185 181 192 193 203 201 202 197 195 199 213 210 212 221 225 226 225 227 227 228 234 238
193 195 181 187 180 179 185 192 191 183 186 189 189 190 207 200 210 199 199 198 198 214 204 212 219 223 223 227 230 234 237 242
198 194 185 189 185 184 187 193 196 195 187 189 193 193 191 204 208 205 205 209 206 205 216 216 218 226 228 230 236 236 240 244
200 202 196 192 193 191 187 191 199 197 196 192 194 196 195 198 204 210 204 210 217 217 220 223 228 232 237 238 241 245 247 251
207 207 207 200 196 196 196 191 193 198 198 199 195 200 203 202 200 204 209 211 215 222 226 230 233 239 240 243 247 244 241 237
247 210 207 205 202 199 200 197 191 194 199 201 198 199 203 208 206 206 209 210 218 223 229 235 241 245 246 252 251 252 249 246
250 238 210 207 207 205 200 201 193 188 198 200 197 193 199 203 205 205 207 212 215 225 231 231 246 49 357 38 36 47 64 78
238 241 232 227 217 205 203 201 195 192 198 197 197 194 198 198 200 203 207 206 199 79 67 69 62 50 55 61 68 70 72 71
292 280 254 259 231 211 203 192 193 193 197 198 194 193 195 198 197 176 99 86 85 79 73 71 72 55 64 79 79 80 77 69